SCP
-0 -0 -0 -0 -0 -0 -0 -0 -0 -0 -0 -0 -0 -0 -0 -0 -0 -0 0 -0 0 0 0 0 0 0 0 0 0 0 0 0 -0 -0 0 0 0 0 -0 -0 -0 -0 0 -0 -0
-0 -0 -0 -0 -0 -0 -0 -0 -0 -0 -0 -0 -0 -0 -0 -0 -0 -0 -0 0 0 0 0 0 0 0 0 0 0 0 0 -0 0 -0 0 0 0 0 -0 0 -0 -0 -0 -0 0
-0 -0 -0 -0 -0 -0 -0 -0 -0 -0 -0 -0 -0 -0 -0 -0 0 -0 -0 0 0 0 0 0 -0 0 0 0 0 0 0 0 0 -0 -0 0 0 0 -0 0 -0 -0 -0 0 -0
-0 -0 -0 -0 -0 -0 -0 -0 -0 -0 -0 -0 -0 -0 -0 0 0 0 0 0 0 0 0 0 0 0 0 0 -0 0 0 0 -0 -0 -0 0 0 0 0 0 -0 0 0 -0 -0
-0 -0 -0 -0 -0 -0 -0 -0 -0 -0 -0 -0 0 -0 -0 0 -0 0 0 0 0 0 0 0 0 0 0 0 0 0 0 0 0 0 0 0 0 -0 -0 -0 0 0 0 -0 -0
-0 -0 -0 -0 -0 -0 -0 -0 -0 -0 0 0 0 0 0 0 -0 -0 0 0 0 0 0 0 0 0 0 0 0 0 0 0 0 -0 -0 -0 -0 0 0 0 -0 0 -0 0 0
-0 -0 -0 -0 -0 -0 -0 -0 -0 -0 0 0 -0 0 0 -0 -0 -0 0 0 0 0 0 0 0 0 0 0 0 0 0 0 0 0 0 0 0 -0 0 0 0 0 0 0 0
-0 -0 -0 -0 -0 -0 -0 -0 -0 -0 0 0 -0 0 -0 -0 -0 0 0 0 0 0 0 -0 0 0 0 0 0 0 0 0 0 -0 -0 0 0 0 0 0 0 0 0 0 0
-0 -0 -0 -0 -0 -0 -0 -0 -0 -0 0 0 -0 -0 -0 0 0 0 0 0 0 0 0 0 0 0 0 0 0 0 0 -0 -0 0 0 0 0 0 0 0 0 0 0 1 1
-0 -0 -0 -0 -0 -0 -0 -0 0 -0 -0 -0 -0 -0 0 -0 0 0 -0 0 0 0 0 0 0 0 0 0 0 -0 -0 -0 -0 0 0 0 0 0 0 0 0 0 0 0 0
-0 -0 -0 -0 -0 -0 -0 0 0 0 0 0 0 -0 -0 0 0 0 0 0 0 0 0 0 0 -0 -0 0 0 0 0 -0 0 0 0 0 0 0 0 0 -0 0 -0 -0 0
-0 -0 -0 -0 -0 -0 0 0 0 0 -0 0 0 -0 -0 0 0 -0 -0 0 -0 0 -0 0 0 -0 0 0 0 0 0 0 0 0 0 0 0 0 0 0 0 0 0 0 0
-0 -0 -0 -0 -0 0 0 0 -0 -0 -0 -0 -0 -0 -0 0 0 -0 0 -0 -0 0 -0 0 0 0 -0 0 0 0 0 0 0 0 0 0 0 0 0 0 0 0 1 0 0
-0 -0 -0 -0 0 0 0 0 0 -0 0 0 0 0 0 0 0 0 0 0 -0 0 0 -0 -0 -0 0 0 0 0 0 0 0 0 0 0 0 0 0 0 0 0 1 0 0
-0 -0 -0 0 0 0 0 -0 0 0 0 -0 0 0 0 0 -0 -0 0 0 -0 0 -0 0 -0 0 0 0 0 0 0 0 -0 0 0 0 0 0 0 0 0 0 1 0 0
-0 -0 -0 0 0 0 -0 -0 0 0 0 0 0 0 0 -0 -0 0 0 0 -0 0 0 0 0 0 0 -0 -0 0 0 0 0 0 0 -0 0 -0 0 0 0 0 1 0 0
-0 -0 -0 0 0 0 -0 0 0 0 -0 0 0 0 0 0 -0 0 0 0 0 0 -0 0 0 0 0 0 0 0 0 0 0 0 0 -0 0 -0 0 0 0 0 1 0 0
-0 -0 -0 0 0 0 0 0 0 0 -0 0 0 0 0 0 -0 0 0 0 0 -0 -0 -0 0 0 0 0 0 0 0 0 0 0 0 0 0 0 0 0 0 0 0 0 0
-0 -0 0 0 0 0 0 0 0 -0 -0 0 0 0 0 0 0 0 0 0 0 0 0 0 0 0 0 0 0 0 0 0 0 0 0 -0 0 0 0 0 0 0 0 1 0
-0 0 0 0 0 0 0 0 0 -0 0 0 0 0 0 -0 0 0 0 0 0 -0 0 0 0 -0 0 0 0 0 0 0 0 0 0 0 0 0 0 0 0 0 0 0 0
0 0 0 0 0 0 0 0 0 -0 0 0 0 0 0 -0 -0 0 0 0 0 0 0 0 0 -0 0 0 0 0 0 0 0 0 0 0 0 -0 0 0 0 0 0 0 0
0 0 0 0 0 0 0 0 0 0 0 0 0 0 0 0 0 0 0 0 0 0 0 0 0 0 -0 -0 0 0 0 0 0 0 0 0 0 0 0 0 0 0 0 0 0
0 0 0 0 0 0 0 0 0 0 0 0 0 0 0 0 0 -0 0 0 0 0 0 0 0 0 0 0 -0 0 0 0 0 0 0 0 0 0 0 0 0 0 0 0 0
0 0 0 0 0 0 0 0 0 0 0 0 0 0 0 0 0 0 0 0 0 0 0 0 0 0 0 0 0 0 0 0 0 0 0 0 0 0 0 0 0 0 0 0 0
0 0 0 0 0 0 0 0 0 0 0 0 0 0 0 0 0 0 0 0 0 0 0 0 0 0 0 0 0 0 -0 0 0 0 0 0 0 0 0 0 0 0 0 0 0
0 0 0 0 0 0 0 0 0 0 0 0 0 0 0 0 0 0 0 0 0 0 0 0 0 0 0 0 0 0 0 0 -0 -0 0 0 0 0 0 0 0 0 0 0 0
0 0 0 0 0 0 0 0 0 0 0 0 0 0 0 0 0 0 0 0 0 0 0 0 0 0 0 0 0 0 0 0 0 0 0 0 0 0 0 0 0 0 0 1 0
Wind_Speed_500mb
56 53 42 37 36 34 31 29 25 22 18 12 8 6 9 12 15 19 17 6 20 16 19 6 8 11 18 26 22 31 5 13 18 15 17 22 36 35 49 67 62 45 58 65 56
53 53 43 41 40 36 34 28 23 18 14 9 4 3 8 9 15 25 15 7 19 25 18 14 25 22 25 30 21 11 3 14 12 14 28 47 47 27 20 37 38 62 59 60 55
50 52 44 44 45 40 31 27 20 14 10 6 3 3 3 5 12 11 18 11 16 15 10 17 26 36 42 44 54 27 13 9 48 80 79 67 69 67 63 12 59 63 69 61 52
47 49 46 43 46 43 33 26 18 12 11 10 9 7 5 6 5 6 7 13 13 14 11 12 17 24 10 12 36 6 24 52 60 83 64 41 49 36 61 17 61 59 57 56 47
44 45 46 40 42 44 36 26 17 15 15 14 13 11 8 10 17 11 7 13 11 14 13 19 39 41 14 22 29 9 4 54 74 84 94 74 56 60 45 60 50 54 52 50 44
42 42 43 41 36 38 36 26 15 14 16 16 14 12 10 9 6 14 9 12 13 11 10 28 43 36 31 24 8 5 12 55 53 68 60 49 40 52 44 57 46 59 54 44 39
41 41 41 40 35 30 31 25 15 15 17 18 18 18 19 16 9 10 8 9 7 11 29 39 28 25 43 22 39 11 9 6 34 36 14 48 23 21 71 62 50 45 39 33 25
43 42 40 39 36 28 26 26 20 16 17 20 22 25 18 4 10 9 7 16 8 17 22 17 19 28 32 32 23 9 12 6 14 31 36 19 20 21 62 59 50 43 37 29 21
45 43 42 39 35 30 26 24 22 17 18 21 22 13 21 17 17 15 17 17 15 13 17 20 20 21 37 12 13 4 10 13 21 28 21 13 37 41 63 58 52 47 43 38 31
47 46 44 39 34 31 22 34 21 18 15 23 26 17 20 26 8 19 14 21 25 13 20 22 11 6 13 6 11 14 12 16 17 17 17 16 21 34 67 65 59 61 58 49 38
49 48 45 38 31 23 27 38 31 6 19 23 22 26 59 13 13 11 17 13 11 17 10 29 4 12 25 22 22 14 14 18 3 13 15 15 35 34 51 56 56 63 66 59 53
46 48 46 37 24 17 29 35 30 29 46 45 54 54 56 34 10 19 23 16 25 13 19 11 18 26 22 22 22 20 16 13 6 13 12 10 6 21 36 42 69 67 72 73 65
44 45 46 38 17 12 25 25 32 41 17 48 45 46 46 32 21 26 31 32 20 17 20 19 24 29 25 21 21 13 6 13 7 7 8 9 8 14 25 53 57 70 79 85 74
43 43 42 44 15 25 13 22 46 41 7 14 15 29 41 31 24 38 40 32 16 20 21 17 40 23 10 7 9 11 14 17 21 5 4 11 9 15 18 26 24 44 67 79 69
43 40 37 34 40 34 27 37 43 28 7 17 12 21 21 35 13 25 33 33 19 27 13 20 15 9 2 10 13 18 14 7 17 1 9 18 6 17 11 14 20 36 64 81 69
45 39 42 29 36 21 29 38 28 2 12 9 16 13 11 38 27 26 15 26 30 17 23 28 31 8 13 14 9 7 13 15 12 8 9 16 8 23 12 18 16 30 71 80 79
45 39 37 40 33 20 20 32 6 7 17 12 15 13 15 15 18 12 14 10 9 5 14 18 14 5 8 6 8 16 14 8 8 5 14 19 9 33 2 17 10 30 64 78 81
49 44 37 42 25 15 11 8 8 19 23 15 7 5 19 22 25 22 16 13 19 17 13 10 16 19 16 14 10 7 16 10 10 6 8 16 10 4 18 39 45 26 51 72 78
51 45 47 26 20 10 14 6 11 13 12 31 9 11 11 15 10 16 20 19 20 22 16 7 13 25 21 11 8 12 6 17 2 8 7 6 6 14 19 19 30 29 39 65 63
48 48 41 11 27 33 10 12 14 28 38 38 19 12 14 16 13 14 17 20 20 19 21 14 6 11 10 13 4 6 2 10 8 2 8 10 9 7 11 15 16 19 18 48 65
33 22 8 25 25 32 12 13 20 49 49 27 18 14 20 19 18 15 16 14 19 20 16 8 11 18 10 5 9 8 4 1 8 8 6 2 10 12 11 17 19 28 36 47 61
11 10 6 27 11 15 19 11 18 45 57 30 3 4 13 17 16 14 14 15 32 15 15 18 12 9 14 12 7 17 19 16 10 14 6 9 12 6 16 22 36 30 36 41 42
8 24 27 21 9 17 26 34 49 40 37 33 14 12 11 15 12 7 17 25 16 10 4 6 3 3 15 15 13 6 7 11 7 9 11 8 11 9 16 14 28 30 36 46 48
9 7 23 39 33 17 18 24 29 43 46 52 8 8 10 12 14 13 15 17 21 9 10 12 4 12 14 15 11 8 12 5 3 5 10 13 15 15 12 17 23 26 18 21 48
10 14 18 8 17 22 21 22 33 32 25 29 9 11 14 11 11 13 17 20 22 12 7 12 7 3 10 14 20 25 21 19 25 19 17 21 17 16 15 16 34 41 37 27 46
11 9 25 42 34 20 13 10 27 34 26 29 10 16 18 15 14 16 18 9 8 8 4 1 8 12 10 17 25 34 34 31 39 25 23 31 20 21 33 12 23 44 44 36 60
16 35 17 19 15 12 12 15 24 31 27 30 24 15 16 10 17 24 26 25 11 6 8 6 8 4 9 14 22 35 25 30 34 22 7 9 11 8 13 5 33 36 42 72 69
Wind_Direction_500mb
16 15 15 15 8 358 351 346 342 337 337 331 311 267 240 229 239 248 236 253 292 294 304 262 249 297 279 269 264 267 336 290 299 131 142 139 95 112 132 158 177 207 158 150 148
13 15 15 12 6 358 356 349 344 344 343 344 318 249 232 230 246 243 198 243 282 290 278 265 282 254 241 261 258 172 158 252 202 65 89 69 73 93 169 160 177 133 145 152 156
10 12 12 9 6 360 357 354 350 357 357 8 6 297 287 309 303 253 255 240 278 262 242 292 294 287 243 255 257 220 218 336 67 92 90 76 50 44 348 138 129 140 149 155 161
6 7 8 6 7 8 4 359 359 15 27 30 17 358 338 297 44 266 270 238 250 229 241 298 294 294 255 256 268 204 227 104 112 111 97 87 89 104 264 281 145 146 154 160 164
1 2 4 3 4 8 8 6 10 33 34 22 3 349 329 295 274 318 236 205 226 197 226 273 287 275 256 289 284 335 250 103 107 110 117 124 131 130 252 274 150 154 161 159 161
356 357 357 0 356 2 8 6 14 18 16 4 354 342 315 266 253 322 186 198 177 201 280 290 282 319 297 288 236 4 114 123 117 143 150 136 146 124 216 235 170 172 167 144 129
350 351 350 354 351 349 355 354 339 348 352 354 345 334 303 261 315 348 166 176 130 267 281 308 301 312 324 323 340 33 8 332 132 159 121 121 117 212 197 182 157 136 128 127 124
345 346 345 348 347 343 340 339 322 309 326 333 337 327 288 185 190 257 242 231 267 279 284 323 321 314 296 309 319 107 11 316 255 153 169 139 187 256 144 139 126 124 123 120 129
342 341 341 343 344 336 337 334 321 298 292 301 317 338 287 233 215 205 223 233 214 260 272 299 324 296 304 322 346 15 240 261 276 186 150 182 150 157 148 146 145 150 149 146 142
339 339 338 340 343 339 351 339 324 291 281 291 278 285 255 256 191 202 221 236 236 237 247 247 261 256 319 6 248 243 228 261 233 188 152 157 147 160 162 160 156 158 157 151 150
336 336 335 338 342 345 1 11 5 11 320 268 263 273 288 194 201 228 214 246 276 227 227 250 195 238 241 246 243 269 279 270 356 116 135 153 146 172 173 164 162 166 160 160 165
334 331 331 334 336 352 346 338 345 313 297 285 268 264 264 271 217 206 219 191 233 249 234 298 224 237 237 250 254 267 276 291 39 117 107 95 135 197 178 177 173 171 165 162 155
330 328 328 328 326 318 334 358 341 338 304 297 249 234 245 231 230 251 192 213 236 219 243 215 244 229 242 258 261 270 298 298 240 125 94 118 311 264 188 187 185 180 170 167 165
323 325 329 324 316 319 3 359 347 337 332 267 200 224 220 216 237 243 200 210 240 232 246 233 246 263 152 316 347 321 292 317 288 62 211 118 259 275 199 193 183 181 155 159 159
314 317 316 328 309 317 334 347 337 326 326 159 149 139 189 185 270 219 218 198 253 279 310 261 250 174 153 263 262 249 255 328 256 178 55 305 86 263 245 189 190 176 151 160 166
306 309 305 303 290 325 346 331 319 21 248 175 136 177 163 210 240 173 190 195 244 275 289 288 277 223 182 235 223 78 42 358 18 61 6 254 195 277 247 195 155 161 149 161 166
304 303 295 288 281 295 335 344 12 226 304 157 166 163 192 207 230 180 172 191 224 259 273 286 263 294 291 2 112 84 57 353 348 355 229 263 238 237 175 104 149 166 151 157 164
305 304 288 275 276 281 354 346 248 273 270 285 103 286 187 206 214 205 169 208 225 243 277 266 292 197 201 177 182 182 150 161 223 225 257 337 291 289 88 71 62 158 171 151 162
307 304 293 275 220 145 257 236 230 220 279 346 335 184 269 242 253 199 184 192 220 220 209 277 290 321 188 135 151 263 176 211 180 274 39 247 21 27 73 80 83 77 110 151 164
314 314 294 243 169 227 208 239 255 268 318 310 308 334 317 266 227 238 203 204 224 242 193 231 313 316 114 136 188 107 247 22 357 162 280 283 285 178 115 130 121 127 139 167 170
316 321 283 162 157 171 218 224 242 263 265 264 281 300 298 319 346 309 226 235 215 219 228 153 119 285 14 133 167 324 285 241 152 147 174 314 280 200 161 167 162 171 171 162 166
318 271 171 179 167 208 231 242 238 270 284 288 353 290 293 311 314 326 322 347 24 357 213 185 152 221 228 287 308 204 205 179 138 274 226 180 258 146 155 171 163 172 169 176 178
265 276 233 230 220 234 262 264 253 264 269 269 248 209 241 282 306 288 311 323 350 63 34 7 164 131 330 340 331 241 231 203 163 130 199 195 256 225 170 138 168 179 180 187 190
293 281 243 234 236 252 285 292 288 274 254 264 278 266 269 251 267 283 296 296 308 82 73 71 30 152 192 211 229 275 266 297 196 152 235 232 249 273 237 186 196 166 172 158 192
228 260 298 297 242 237 243 262 283 292 300 267 247 223 268 278 275 287 298 300 288 170 141 118 186 270 266 271 277 274 272 268 238 219 233 255 245 233 241 220 214 186 176 156 156
269 300 338 306 300 302 288 285 287 263 270 293 333 295 222 236 222 245 271 286 250 341 211 258 230 199 257 268 273 274 283 284 283 278 227 235 246 243 256 280 218 180 179 146 118
271 284 292 277 297 305 272 251 278 296 272 282 287 295 301 323 354 348 331 315 270 193 214 201 166 179 249 234 263 257 235 252 272 278 251 265 247 59 21 147 140 132 134 121 125
Wind_Speed_850mb
56 53 42 37 36 34 31 29 25 22 18 12 8 6 9 12 15 19 17 6 20 16 19 6 8 11 18 26 22 31 5 13 18 15 17 22 36 35 49 67 62 45 58 65 56
53 53 43 41 40 36 34 28 23 18 14 9 4 3 8 9 15 25 15 7 19 25 18 14 25 22 25 30 21 11 3 14 12 14 28 47 47 27 20 37 38 62 59 60 55
50 52 44 44 45 40 31 27 20 14 10 6 3 3 3 5 12 11 18 11 16 15 10 17 26 36 42 44 54 27 13 9 48 80 79 67 69 67 63 12 59 63 69 61 52
47 49 46 43 46 43 33 26 18 12 11 10 9 7 5 6 5 6 7 13 13 14 11 12 17 24 10 12 36 6 24 52 60 83 64 41 49 36 61 17 61 59 57 56 47
44 45 46 40 42 44 36 26 17 15 15 14 13 11 8 10 17 11 7 13 11 14 13 19 39 41 14 22 29 9 4 54 74 84 94 74 56 60 45 60 50 54 52 50 44
42 42 43 41 36 38 36 26 15 14 16 16 14 12 10 9 6 14 9 12 13 11 10 28 43 36 31 24 8 5 12 55 53 68 60 49 40 52 44 57 46 59 54 44 39
41 41 41 40 35 30 31 25 15 15 17 18 18 18 19 16 9 10 8 9 7 11 29 39 28 25 43 22 39 11 9 6 34 36 14 48 23 21 71 62 50 45 39 33 25
43 42 40 39 36 28 26 26 20 16 17 20 22 25 18 4 10 9 7 16 8 17 22 17 19 28 32 32 23 9 12 6 14 31 36 19 20 21 62 59 50 43 37 29 21
45 43 42 39 35 30 26 24 22 17 18 21 22 13 21 17 17 15 17 17 15 13 17 20 20 21 37 12 13 4 10 13 21 28 21 13 37 41 63 58 52 47 43 38 31
47 46 44 39 34 31 22 34 21 18 15 23 26 17 20 26 8 19 14 21 25 13 20 22 11 6 13 6 11 14 12 16 17 17 17 16 21 34 67 65 59 61 58 49 38
49 48 45 38 31 23 27 38 31 6 19 23 22 26 59 13 13 11 17 13 11 17 10 29 4 12 25 22 22 14 14 18 3 13 15 15 35 34 51 56 56 63 66 59 53
46 48 46 37 24 17 29 35 30 29 46 45 54 54 56 34 10 19 23 16 25 13 19 11 18 26 22 22 22 20 16 13 6 13 12 10 6 21 36 42 69 67 72 73 65
44 45 46 38 17 12 25 25 32 41 17 48 45 46 46 32 21 26 31 32 20 17 20 19 24 29 25 21 21 13 6 13 7 7 8 9 8 14 25 53 57 70 79 85 74
43 43 42 44 15 25 13 22 46 41 7 14 15 29 41 31 24 38 40 32 16 20 21 17 40 23 10 7 9 11 14 17 21 5 4 11 9 15 18 26 24 44 67 79 69
43 40 37 34 40 34 27 37 43 28 7 17 12 21 21 35 13 25 33 33 19 27 13 20 15 9 2 10 13 18 14 7 17 1 9 18 6 17 11 14 20 36 64 81 69
45 39 42 29 36 21 29 38 28 2 12 9 16 13 11 38 27 26 15 26 30 17 23 28 31 8 13 14 9 7 13 15 12 8 9 16 8 23 12 18 16 30 71 80 79
45 39 37 40 33 20 20 32 6 7 17 12 15 13 15 15 18 12 14 10 9 5 14 18 14 5 8 6 8 16 14 8 8 5 14 19 9 33 2 17 10 30 64 78 81
49 44 37 42 25 15 11 8 8 19 23 15 7 5 19 22 25 22 16 13 19 17 13 10 16 19 16 14 10 7 16 10 10 6 8 16 10 4 18 39 45 26 51 72 78
51 45 47 26 20 10 14 6 11 13 12 31 9 11 11 15 10 16 20 19 20 22 16 7 13 25 21 11 8 12 6 17 2 8 7 6 6 14 19 19 30 29 39 65 63
48 48 41 11 27 33 10 12 14 28 38 38 19 12 14 16 13 14 17 20 20 19 21 14 6 11 10 13 4 6 2 10 8 2 8 10 9 7 11 15 16 19 18 48 65
33 22 8 25 25 32 12 13 20 49 49 27 18 14 20 19 18 15 16 14 19 20 16 8 11 18 10 5 9 8 4 1 8 8 6 2 10 12 11 17 19 28 36 47 61
11 10 6 27 11 15 19 11 18 45 57 30 3 4 13 17 16 14 14 15 32 15 15 18 12 9 14 12 7 17 19 16 10 14 6 9 12 6 16 22 36 30 36 41 42
8 24 27 21 9 17 26 34 49 40 37 33 14 12 11 15 12 7 17 25 16 10 4 6 3 3 15 15 13 6 7 11 7 9 11 8 11 9 16 14 28 30 36 46 48
9 7 23 39 33 17 18 24 29 43 46 52 8 8 10 12 14 13 15 17 21 9 10 12 4 12 14 15 11 8 12 5 3 5 10 13 15 15 12 17 23 26 18 21 48
10 14 18 8 17 22 21 22 33 32 25 29 9 11 14 11 11 13 17 20 22 12 7 12 7 3 10 14 20 25 21 19 25 19 17 21 17 16 15 16 34 41 37 27 46
11 9 25 42 34 20 13 10 27 34 26 29 10 16 18 15 14 16 18 9 8 8 4 1 8 12 10 17 25 34 34 31 39 25 23 31 20 21 33 12 23 44 44 36 60
16 35 17 19 15 12 12 15 24 31 27 30 24 15 16 10 17 24 26 25 11 6 8 6 8 4 9 14 22 35 25 30 34 22 7 9 11 8 13 5 33 36 42 72 69
Wind_Direction_850mb
16 15 15 15 8 358 351 346 342 337 337 331 311 267 240 229 239 248 236 253 292 294 304 262 249 297 279 269 264 267 336 290 299 131 142 139 95 112 132 158 177 207 158 150 148
13 15 15 12 6 358 356 349 344 344 343 344 318 249 232 230 246 243 198 243 282 290 278 265 282 254 241 261 258 172 158 252 202 65 89 69 73 93 169 160 177 133 145 152 156
10 12 12 9 6 360 357 354 350 357 357 8 6 297 287 309 303 253 255 240 278 262 242 292 294 287 243 255 257 220 218 336 67 92 90 76 50 44 348 138 129 140 149 155 161
6 7 8 6 7 8 4 359 359 15 27 30 17 358 338 297 44 266 270 238 250 229 241 298 294 294 255 256 268 204 227 104 112 111 97 87 89 104 264 281 145 146 154 160 164
1 2 4 3 4 8 8 6 10 33 34 22 3 349 329 295 274 318 236 205 226 197 226 273 287 275 256 289 284 335 250 103 107 110 117 124 131 130 252 274 150 154 161 159 161
356 357 357 0 356 2 8 6 14 18 16 4 354 342 315 266 253 322 186 198 177 201 280 290 282 319 297 288 236 4 114 123 117 143 150 136 146 124 216 235 170 172 167 144 129
350 351 350 354 351 349 355 354 339 348 352 354 345 334 303 261 315 348 166 176 130 267 281 308 301 312 324 323 340 33 8 332 132 159 121 121 117 212 197 182 157 136 128 127 124
345 346 345 348 347 343 340 339 322 309 326 333 337 327 288 185 190 257 242 231 267 279 284 323 321 314 296 309 319 107 11 316 255 153 169 139 187 256 144 139 126 124 123 120 129
342 341 341 343 344 336 337 334 321 298 292 301 317 338 287 233 215 205 223 233 214 260 272 299 324 296 304 322 346 15 240 261 276 186 150 182 150 157 148 146 145 150 149 146 142
339 339 338 340 343 339 351 339 324 291 281 291 278 285 255 256 191 202 221 236 236 237 247 247 261 256 319 6 248 243 228 261 233 188 152 157 147 160 162 160 156 158 157 151 150
336 336 335 338 342 345 1 11 5 11 320 268 263 273 288 194 201 228 214 246 276 227 227 250 195 238 241 246 243 269 279 270 356 116 135 153 146 172 173 164 162 166 160 160 165
334 331 331 334 336 352 346 338 345 313 297 285 268 264 264 271 217 206 219 191 233 249 234 298 224 237 237 250 254 267 276 291 39 117 107 95 135 197 178 177 173 171 165 162 155
330 328 328 328 326 318 334 358 341 338 304 297 249 234 245 231 230 251 192 213 236 219 243 215 244 229 242 258 261 270 298 298 240 125 94 118 311 264 188 187 185 180 170 167 165
323 325 329 324 316 319 3 359 347 337 332 267 200 224 220 216 237 243 200 210 240 232 246 233 246 263 152 316 347 321 292 317 288 62 211 118 259 275 199 193 183 181 155 159 159
314 317 316 328 309 317 334 347 337 326 326 159 149 139 189 185 270 219 218 198 253 279 310 261 250 174 153 263 262 249 255 328 256 178 55 305 86 263 245 189 190 176 151 160 166
306 309 305 303 290 325 346 331 319 21 248 175 136 177 163 210 240 173 190 195 244 275 289 288 277 223 182 235 223 78 42 358 18 61 6 254 195 277 247 195 155 161 149 161 166
304 303 295 288 281 295 335 344 12 226 304 157 166 163 192 207 230 180 172 191 224 259 273 286 263 294 291 2 112 84 57 353 348 355 229 263 238 237 175 104 149 166 151 157 164
305 304 288 275 276 281 354 346 248 273 270 285 103 286 187 206 214 205 169 208 225 243 277 266 292 197 201 177 182 182 150 161 223 225 257 337 291 289 88 71 62 158 171 151 162
307 304 293 275 220 145 257 236 230 220 279 346 335 184 269 242 253 199 184 192 220 220 209 277 290 321 188 135 151 263 176 211 180 274 39 247 21 27 73 80 83 77 110 151 164
314 314 294 243 169 227 208 239 255 268 318 310 308 334 317 266 227 238 203 204 224 242 193 231 313 316 114 136 188 107 247 22 357 162 280 283 285 178 115 130 121 127 139 167 170
316 321 283 162 157 171 218 224 242 263 265 264 281 300 298 319 346 309 226 235 215 219 228 153 119 285 14 133 167 324 285 241 152 147 174 314 280 200 161 167 162 171 171 162 166
318 271 171 179 167 208 231 242 238 270 284 288 353 290 293 311 314 326 322 347 24 357 213 185 152 221 228 287 308 204 205 179 138 274 226 180 258 146 155 171 163 172 169 176 178
265 276 233 230 220 234 262 264 253 264 269 269 248 209 241 282 306 288 311 323 350 63 34 7 164 131 330 340 331 241 231 203 163 130 199 195 256 225 170 138 168 179 180 187 190
293 281 243 234 236 252 285 292 288 274 254 264 278 266 269 251 267 283 296 296 308 82 73 71 30 152 192 211 229 275 266 297 196 152 235 232 249 273 237 186 196 166 172 158 192
228 260 298 297 242 237 243 262 283 292 300 267 247 223 268 278 275 287 298 300 288 170 141 118 186 270 266 271 277 274 272 268 238 219 233 255 245 233 241 220 214 186 176 156 156
269 300 338 306 300 302 288 285 287 263 270 293 333 295 222 236 222 245 271 286 250 341 211 258 230 199 257 268 273 274 283 284 283 278 227 235 246 243 256 280 218 180 179 146 118
271 284 292 277 297 305 272 251 278 296 272 282 287 295 301 323 354 348 331 315 270 193 214 201 166 179 249 234 263 257 235 252 272 278 251 265 247 59 21 147 140 132 134 121 125